sat.trackr.live / text

‹ back to catalog

STARLINK-6280

NORAD 56531 · 2023-065AE

PAYLOAD ACTIVE UNKNOWN

§ Identity

Operator
Country
US
Launch date
2023-05-14
Launch site
AFETR
Launch vehicle
Mass (kg)
RCS (m²)

Purposes: comms

External: N2YO · Heavens-Above · Gunter

§ Orbital elements

Epoch: 2026-09-20T22:30:31.497984Z

Period
94.27 min
Inclination
43.0036°
Eccentricity
0.0001241
Mean motion
15.27574239 rev/d
Perigee alt
482.2 km
Apogee alt
483.9 km
Semi-major
6,861.2 km
B*
1.1110e-5
RAAN
175.6853°
Arg perigee
261.5559°
Mean anomaly
98.5152°
Rev number
18,662

§ Raw data

STARLINK-62801 56531U 23065AE  26263.93786456  .00000044  00000+0  11110-4 0  99982 56531  43.0036 175.6853 0001241 261.5559  98.5152 15.27574239186622

JSON: /api/v1/satellites/56531 · /tle

For live sub-satellite position, see the globe view (requires WebGL).

§ Visibility from observer

Set your observer location to see the next 7 days of passes ≥ 10°. The values pass through the URL so the page stays shareable.

No JS? Fill the form by hand. The geolocation button needs JavaScript.